Location: Dulzura
(32.6442°N, 116.7814°W)
Time: 11:57:42
(UTC+00:00)

ZACube-1 - Visible Passes

Search period start: 28 March 2023 00:00
Search period end: 07 April 2023 00:00
Orbit: 577 x 654 km, 97.7° (Epoch: 27 March)

Date Brightness Start Highest point End Pass type
(mag) Time Alt. Az. Time Alt. Az. Time Alt. Az.
28 Mar ? 10:44:47 10° NNE 10:45:29 14° NNE 10:45:29 14° NNE visible
29 Mar ? 11:00:36 10° NNE 11:01:46 18° NNE 11:01:46 18° NNE visible
30 Mar ? 11:16:35 10° N 11:18:02 21° N 11:18:02 21° N visible
31 Mar ? 11:32:42 10° N 11:34:18 21° NNW 11:34:18 21° NNW visible
01 Apr ? 11:49:00 10° NNW 11:50:33 19° NNW 11:50:33 19° NNW visible
02 Apr ? 10:28:59 10° NE 10:29:43 14° NE 10:29:43 14° NE visible
02 Apr ? 12:05:32 10° NNW 12:06:48 15° NW 12:06:48 15° NW visible
03 Apr ? 10:44:33 10° NNE 10:45:57 20° NE 10:45:57 20° NE visible
03 Apr ? 12:22:45 10° NW 12:23:02 11° NW 12:23:02 11° NW visible
04 Apr ? 11:00:20 10° NNE 11:02:10 26° NNE 11:02:10 26° NNE visible
05 Apr ? 11:16:15 10° N 11:18:24 30° N 11:18:24 30° N visible
06 Apr ? 11:32:18 10° N 11:34:35 28° NNW 11:34:35 28° NNW visible
